SCP
-0 -0 -0 -0 -0 -0 -0 -0 0 0 0 0 -0 -0 -0 -0 0 0 -0 -0 -0 -0 -0 -0 0 -0 0 0 -0 -0 -0 -0 -0 -0 -0 -0 -0 -0 0 -0 0 0 0 0 0 0 0
-0 -0 -0 -0 -0 -0 -0 -0 -0 0 0 0 -0 -0 0 0 0 0 0 -0 -0 -0 -0 -0 0 -0 0 -0 -0 -0 -0 -0 -0 -0 -0 -0 -0 -0 0 0 0 0 0 0 0 0 0
-0 -0 -0 -0 -0 -0 -0 -0 -0 -0 -0 0 -0 0 0 0 0 0 -0 -0 -0 -0 -0 -0 -0 0 -0 -0 -0 -0 -0 -0 -0 -0 -0 -0 -0 -0 -0 -0 0 0 0 0 0 0 0
-0 -0 -0 -0 -0 -0 -0 -0 -0 -0 -0 -0 0 0 0 0 0 -0 -0 -0 -0 -0 -0 -0 0 0 -0 -0 -0 -0 -0 -0 -0 -0 -0 -0 -0 0 -0 0 0 -0 -0 0 0 0 0
-0 -0 -0 -0 -0 -0 -0 -0 -0 -0 -0 -0 -0 0 0 0 0 -0 -0 -0 -0 -0 -0 0 0 0 -0 -0 0 -0 -0 -0 -0 0 -0 -0 -0 -0 -0 0 0 -0 0 0 0 0 0
-0 -0 -0 -0 -0 -0 -0 -0 -0 -0 -0 -0 -0 0 0 0 0 -0 -0 -0 -0 -0 -0 0 -0 -0 -0 -0 0 0 -0 0 -0 0 0 0 -0 0 -0 -0 0 0 0 0 0 0 0
-0 -0 -0 -0 -0 -0 -0 -0 -0 -0 -0 -0 -0 0 0 0 0 -0 -0 0 0 -0 0 -0 -0 -0 0 -0 0 0 0 0 0 -0 0 0 0 0 0 0 0 0 0 0 0 0 0
-0 -0 -0 -0 -0 -0 -0 -0 -0 -0 -0 -0 -0 -0 0 0 0 0 0 0 0 0 0 -0 -0 -0 0 0 0 0 0 0 0 0 0 0 0 0 -0 0 0 0 0 0 0 0 0
-0 -0 -0 -0 -0 -0 -0 -0 -0 -0 -0 -0 -0 -0 0 0 0 0 0 0 0 0 -0 -0 -0 0 0 -0 0 0 0 0 0 0 0 -0 0 0 0 0 0 0 0 0 0 0 0
-0 -0 -0 -0 -0 -0 -0 -0 -0 -0 -0 -0 -0 -0 0 0 0 0 0 0 0 0 0 -0 0 -0 0 -0 0 0 0 0 -0 0 -0 0 0 0 0 0 0 0 0 0 0 0 0
0 0 -0 -0 -0 -0 -0 -0 -0 -0 -0 -0 -0 -0 0 0 0 0 0 0 0 0 0 0 -0 0 0 -0 0 0 0 0 0 0 0 0 0 0 0 0 0 0 0 0 0 0 0
0 0 0 0 -0 -0 -0 -0 -0 -0 -0 -0 -0 -0 -0 0 0 0 0 0 0 0 0 0 0 0 0 -0 0 0 0 0 0 0 -0 0 0 0 0 0 0 0 0 0 0 0 0
0 0 0 0 0 -0 -0 -0 -0 -0 -0 -0 -0 0 0 0 0 -0 0 0 0 0 -0 0 0 0 0 0 0 -0 0 0 0 0 0 0 0 0 0 0 0 0 0 0 0 0 0
0 0 0 0 0 0 -0 -0 -0 -0 -0 -0 -0 0 -0 0 0 0 0 0 0 -0 -0 0 0 0 0 0 0 0 0 0 0 0 0 0 0 0 0 0 0 0 0 0 0 0 0
0 0 0 0 0 0 0 -0 -0 -0 -0 -0 -0 0 0 0 0 0 0 0 0 0 0 0 0 0 0 0 0 0 0 0 0 0 0 0 0 0 0 0 0 0 0 0 0 0 0
0 0 0 0 0 0 0 0 -0 -0 -0 -0 -0 -0 0 0 0 0 0 -0 0 0 0 0 0 0 -0 0 0 0 0 0 0 0 0 0 0 0 0 0 0 0 0 0 0 0 0
0 0 0 0 0 0 0 0 0 -0 -0 0 0 0 0 0 0 0 0 -0 0 0 0 0 0 0 0 0 0 0 0 0 0 0 0 0 0 0 0 0 0 0 0 0 0 0 0
0 0 0 0 0 0 0 0 0 0 -0 -0 0 0 0 0 0 0 0 0 0 0 0 0 0 0 0 0 0 0 0 0 0 0 0 0 0 0 0 0 0 0 0 0 0 0 0
0 0 0 0 0 0 0 0 0 0 -0 0 0 0 0 0 0 0 0 0 0 0 0 0 0 0 0 0 0 0 0 0 0 0 0 0 0 0 0 0 0 0 0 0 0 0 0
0 0 0 0 0 0 0 0 0 0 0 0 0 0 0 0 0 0 0 0 0 0 0 0 0 0 0 0 0 0 0 0 0 0 0 0 0 0 0 0 0 0 0 0 0 0 0
0 0 0 0 0 0 0 0 0 0 0 0 0 0 0 0 0 0 0 0 0 0 0 0 0 0 0 0 0 0 0 0 0 0 0 0 0 0 0 0 0 0 0 0 0 0 0
0 0 0 0 0 0 0 0 0 0 0 0 0 0 0 0 0 0 0 0 0 0 0 0 0 0 0 0 0 0 0 0 0 0 0 0 0 0 0 0 0 -0 0 0 0 0 0
0 0 0 0 0 0 0 0 0 0 0 0 0 0 0 0 0 0 0 0 0 0 0 0 0 0 0 0 0 0 0 0 0 0 0 0 0 0 0 0 0 0 0 0 0 0 0
0 0 0 0 0 0 0 0 0 0 0 0 0 0 0 0 0 0 0 0 0 0 0 0 0 0 0 0 0 0 0 0 0 0 0 0 0 0 0 0 0 0 0 0 0 0 0
0 0 0 0 0 0 0 0 0 0 0 0 0 0 0 0 0 0 0 0 0 0 0 0 0 0 0 0 0 0 0 0 0 0 0 0 0 0 0 0 0 0 0 0 0 0 0
0 0 0 0 0 0 0 0 0 0 0 0 0 0 0 0 0 0 0 0 0 0 0 0 0 0 0 0 0 0 0 0 0 0 0 0 0 0 0 0 0 0 0 0 0 0 0
0 0 0 0 0 0 0 0 0 0 0 0 0 0 0 0 0 0 0 0 0 0 0 0 0 0 0 0 0 0 0 0 0 0 0 0 0 0 0 0 0 0 0 0 0 0 0
0 0 0 0 0 0 0 0 0 0 0 0 0 0 0 0 0 0 0 0 0 0 0 0 0 0 0 0 0 0 0 0 0 0 0 0 0 0 0 0 0 0 0 0 0 0 0
0 0 0 0 0 0 0 0 0 0 0 0 0 0 0 0 0 0 0 0 0 0 0 0 0 0 0 0 0 0 0 0 0 0 0 0 0 0 0 0 0 0 0 0 0 0 0
Wind_Speed_500mb
54 53 50 38 27 19 15 11 8 6 6 11 14 14 12 12 13 15 15 12 6 0 1 6 14 16 15 19 25 9 7 5 6 14 26 40 48 53 15 19 13 8 2 15 24 20 24
55 55 54 49 34 24 17 14 12 12 12 13 12 11 11 11 12 14 14 11 6 1 1 10 17 19 19 22 2 6 9 5 16 28 33 29 35 42 18 19 12 16 20 9 17 21 8
53 54 55 54 46 31 21 16 13 12 12 11 9 10 10 9 9 11 13 11 7 2 2 5 15 22 26 27 6 9 15 10 12 11 30 28 26 29 40 23 12 16 8 13 9 27 10
53 53 53 54 52 42 28 18 12 9 9 9 9 8 7 6 6 9 12 12 8 5 5 8 13 18 19 4 17 17 18 18 7 10 14 21 18 24 23 30 6 8 8 9 16 19 13
51 52 52 51 51 49 38 25 13 7 5 6 7 6 4 4 5 8 11 12 10 10 9 13 15 13 22 5 9 5 9 20 10 9 12 17 10 25 34 5 12 10 13 4 9 26 14
48 50 51 51 49 47 44 34 20 9 2 4 6 5 4 5 5 6 10 13 13 12 9 20 21 18 23 12 4 10 4 6 16 16 18 23 13 6 12 11 5 11 5 12 15 12 16
43 46 48 50 50 47 43 40 30 17 6 2 4 6 7 8 4 5 6 2 6 9 20 22 23 12 8 3 6 10 6 13 16 16 11 35 5 6 8 9 12 17 15 18 5 16 11
39 41 43 45 47 48 45 40 37 26 14 2 5 8 11 8 5 11 3 7 20 16 19 35 32 27 7 4 15 9 13 19 15 12 23 13 9 12 16 16 9 14 14 17 18 15 10
34 37 40 42 44 46 47 44 37 32 20 7 4 12 13 11 11 5 4 12 15 23 10 35 42 26 15 14 23 14 13 19 27 12 12 4 8 17 14 13 17 14 19 19 17 18 14
30 33 36 38 40 43 45 46 41 34 23 11 2 13 15 11 3 13 22 13 16 18 4 11 19 20 27 17 5 9 10 19 23 8 15 5 15 10 14 19 18 11 17 17 20 17 8
29 31 33 35 37 40 42 44 44 35 26 13 1 13 12 9 9 11 10 13 25 3 4 18 18 11 18 15 18 7 5 16 12 18 9 11 11 14 14 10 6 6 12 13 18 13 9
28 30 32 34 36 37 38 40 41 39 28 16 3 10 15 6 10 11 16 16 12 5 10 16 18 14 11 27 17 15 5 3 13 10 15 6 10 7 5 14 14 4 10 16 11 4 4
28 29 31 33 35 36 37 37 38 38 31 20 8 13 18 13 7 32 16 15 5 6 17 14 19 16 17 16 13 14 11 9 6 2 12 18 6 15 12 9 17 20 14 9 11 6 10
29 30 31 33 34 36 36 35 34 36 34 21 12 10 20 23 4 24 10 7 7 16 15 0 7 18 18 18 14 16 9 9 19 14 11 9 10 8 5 9 3 12 4 9 4 5 11
29 31 33 34 35 37 37 37 34 32 35 25 11 5 12 11 2 13 11 3 9 8 10 17 6 8 13 6 10 7 11 9 9 10 6 8 3 5 13 10 6 12 9 6 3 7 4
26 30 32 34 36 38 39 39 37 33 31 29 15 16 19 13 16 3 1 10 10 36 11 14 9 0 12 5 8 5 6 11 9 13 14 7 8 7 9 6 10 3 2 10 6 1 5
27 28 30 33 35 37 39 41 40 36 31 28 21 12 9 29 7 5 6 11 22 13 14 9 13 12 15 10 0 5 15 14 17 12 9 9 6 13 15 5 12 2 4 2 6 8 7
26 29 30 31 33 34 35 39 42 40 33 24 13 6 20 24 6 10 9 11 15 17 13 5 6 8 12 15 12 14 11 9 10 14 7 2 5 5 11 16 8 5 3 7 9 10 2
28 27 29 31 32 32 32 32 35 40 41 41 32 16 19 19 5 9 18 24 6 6 5 7 3 10 15 13 10 8 15 11 3 9 5 5 5 5 20 9 5 5 5 9 8 7 9
31 32 30 30 30 32 32 31 27 29 34 37 14 7 11 27 28 11 14 17 7 11 7 10 7 14 10 3 10 2 9 10 12 14 14 8 2 6 10 15 10 11 13 13 13 7 11
27 29 29 29 30 29 31 32 28 22 25 26 6 8 17 7 12 20 15 11 16 5 16 18 4 10 12 9 9 9 9 12 17 18 9 9 4 8 16 21 25 18 21 17 14 14 10
28 28 28 30 30 30 28 30 31 25 14 13 13 14 20 29 29 19 12 11 17 22 14 13 13 15 8 9 7 6 8 6 7 5 10 9 5 7 12 21 26 29 26 17 12 14 10
32 32 31 28 28 29 29 28 29 25 15 5 16 10 11 17 19 11 8 14 20 27 31 2 9 7 2 5 25 26 19 6 3 11 12 9 7 4 8 15 23 16 11 5 6 11 6
31 32 31 27 24 27 26 25 23 21 17 15 13 16 10 9 16 15 37 48 11 6 7 19 2 4 14 12 12 8 3 11 17 15 13 5 2 3 8 12 6 13 13 13 11 12 13
25 27 29 29 28 25 24 23 21 19 16 12 2 17 9 8 21 34 39 37 35 7 11 10 20 19 21 9 4 1 6 5 16 17 16 19 8 3 4 6 18 22 7 6 8 6 10
22 22 23 24 26 27 26 25 23 21 21 17 10 2 9 14 13 29 35 38 13 7 12 11 19 19 13 3 4 6 7 8 8 8 19 13 13 9 4 2 7 6 12 25 13 3 16
24 23 21 22 23 25 26 27 27 25 23 22 13 6 7 16 43 27 17 17 20 23 6 15 20 11 16 5 3 7 13 14 11 14 12 7 6 14 10 10 13 5 22 11 5 12 7
23 24 24 23 22 23 23 24 26 27 25 23 17 7 12 19 54 36 37 30 32 23 6 18 6 2 4 4 6 8 7 10 6 10 15 16 13 9 8 10 15 29 10 9 13 6 6
23 23 24 24 24 23 22 22 22 22 21 20 19 16 18 26 41 36 38 39 32 22 28 10 14 18 14 5 6 5 6 5 7 5 5 2 12 10 13 11 22 32 17 17 11 8 2
Wind_Direction_500mb
48 47 45 45 51 59 67 73 83 100 124 139 149 156 162 165 170 175 180 185 193 181 295 258 264 260 294 312 285 41 71 134 208 284 301 291 281 284 275 304 63 348 105 59 87 75 56
47 45 45 43 48 53 62 66 76 94 116 133 144 152 158 164 173 182 191 200 206 176 45 235 256 276 301 289 94 24 74 264 293 305 300 307 319 329 336 339 72 3 3 118 118 118 116
46 44 44 43 45 49 53 63 74 96 114 124 130 139 150 162 179 195 205 212 218 222 116 240 262 280 286 263 282 273 291 281 305 287 301 317 343 330 327 336 349 352 338 302 177 156 149
46 44 43 42 42 44 45 52 66 91 120 128 131 136 146 162 184 204 216 221 228 226 210 277 271 298 277 299 235 248 299 274 313 312 297 318 313 303 300 308 312 262 304 255 242 141 128
46 44 42 41 40 40 40 42 49 76 126 153 154 152 155 167 185 208 219 226 234 235 227 275 282 278 277 288 167 312 319 310 350 302 298 303 293 271 277 253 330 301 250 250 106 171 146
43 43 42 40 39 37 37 36 35 37 99 177 188 186 173 160 174 194 211 221 227 243 253 279 263 290 254 286 118 253 223 332 310 310 283 262 257 243 323 47 284 327 319 350 124 244 150
41 41 39 38 37 35 33 32 29 27 20 196 180 166 150 142 150 179 165 170 300 266 243 223 280 253 136 59 300 257 300 285 244 289 276 280 238 295 33 47 14 346 348 340 318 210 146
36 36 36 35 34 33 32 30 26 22 18 27 165 151 140 133 146 150 195 277 319 316 306 263 272 277 59 200 263 201 262 247 232 234 259 310 58 0 359 337 36 19 19 359 334 28 36
31 30 31 30 30 30 29 28 26 21 17 13 155 154 147 141 151 114 307 347 341 322 282 291 224 241 202 245 273 98 336 339 302 282 274 14 51 22 11 15 36 32 32 2 340 333 357
26 25 24 25 24 25 25 24 23 22 15 10 155 164 166 174 229 309 283 351 347 337 346 258 199 241 183 225 251 79 355 320 320 7 16 35 86 51 332 56 39 5 15 358 332 356 308
17 17 17 17 18 19 19 20 20 18 17 14 161 181 183 196 326 358 22 325 312 321 313 141 176 186 171 217 123 82 16 322 358 354 55 270 51 49 11 44 44 250 343 288 280 283 329
8 10 10 9 10 12 13 14 15 16 12 8 258 193 191 240 297 357 344 322 318 28 248 196 141 179 212 224 157 132 215 2 308 325 304 236 103 90 64 353 311 294 310 322 282 171 332
358 0 3 2 3 4 6 7 8 9 8 360 326 215 201 234 285 6 311 302 13 222 317 146 161 182 217 198 171 151 198 220 217 187 342 328 232 86 85 12 359 21 44 347 351 21 208
346 350 353 355 356 356 358 360 2 0 3 355 339 243 224 224 6 338 294 1 248 270 288 261 146 171 192 209 185 167 150 280 18 67 28 16 347 25 110 81 349 288 129 140 276 355 285
337 340 343 346 348 350 351 351 354 356 351 356 341 301 237 174 45 302 310 262 235 278 0 343 81 320 203 188 123 135 179 266 50 66 106 10 40 128 81 48 93 309 50 189 71 293 4
327 332 335 338 342 344 345 345 346 350 348 346 329 288 263 165 216 245 40 252 285 287 352 353 326 233 279 335 94 133 245 28 102 80 79 331 336 344 149 206 142 206 273 33 353 274 298
318 322 327 331 336 339 341 343 341 343 345 338 333 316 131 180 241 211 218 250 295 78 58 352 3 360 345 26 253 34 57 49 27 99 78 28 76 298 344 239 195 165 289 219 143 140 166
315 319 322 325 329 333 338 341 342 342 343 332 343 278 197 198 199 226 230 251 319 105 106 289 38 348 2 39 22 13 75 83 29 34 37 71 115 305 270 298 77 87 315 116 116 291 3
308 314 317 320 324 327 331 336 342 344 347 351 335 282 208 190 223 261 294 309 131 336 41 10 11 65 55 10 22 354 98 120 94 70 70 335 317 353 330 29 42 227 250 213 185 123 202
293 300 307 312 317 322 327 329 334 339 337 338 326 306 271 207 234 266 292 305 218 141 5 59 12 62 8 262 285 214 104 134 117 109 115 77 347 181 208 262 304 285 253 232 189 132 221
283 288 293 302 310 317 321 325 325 327 329 329 279 308 3 329 346 337 341 313 315 136 190 167 261 226 219 220 281 218 189 134 132 141 122 114 219 279 286 291 297 298 301 288 275 241 177
281 287 294 292 299 307 314 322 325 326 331 29 345 359 332 306 319 324 327 322 309 301 163 210 159 263 309 188 217 332 64 71 130 211 168 174 243 314 298 292 287 288 280 271 310 297 45
277 283 290 292 290 296 304 311 320 326 335 321 0 337 351 292 310 321 258 265 270 272 293 225 131 47 238 325 99 79 82 61 19 154 204 164 172 355 270 310 317 323 289 306 95 65 89
276 279 281 286 284 288 297 304 309 317 333 349 15 3 321 299 322 309 320 319 309 82 12 355 75 88 110 87 71 67 84 258 227 235 185 174 62 195 264 316 267 244 61 78 92 76 35
279 281 282 281 278 283 290 294 298 294 297 297 53 1 317 297 315 308 344 333 315 338 330 287 40 107 135 103 25 9 294 234 223 212 193 171 128 290 180 230 262 300 117 146 131 294 78
279 283 287 284 279 278 281 284 284 287 279 272 245 220 282 304 244 345 318 317 318 343 286 154 144 146 124 86 151 216 246 229 153 186 182 149 147 139 346 297 251 222 139 127 131 347 65
273 280 284 286 286 281 278 281 280 276 281 270 237 218 275 272 272 321 345 321 323 339 296 319 156 142 156 131 218 238 241 244 249 176 183 143 183 191 216 227 265 74 109 124 125 234 22
271 274 278 283 287 288 284 282 281 277 265 266 239 166 257 274 279 269 307 326 338 355 353 344 31 26 88 146 197 229 249 250 282 242 165 170 171 195 206 222 279 139 135 163 185 181 316
271 275 277 279 281 285 288 280 278 282 281 266 248 218 250 255 262 270 262 254 259 268 306 307 280 314 219 160 236 253 261 297 175 238 65 309 177 194 157 210 164 183 176 167 178 235 248
Wind_Speed_850mb
54 53 50 38 27 19 15 11 8 6 6 11 14 14 12 12 13 15 15 12 6 0 1 6 14 16 15 19 25 9 7 5 6 14 26 40 48 53 15 19 13 8 2 15 24 20 24
55 55 54 49 34 24 17 14 12 12 12 13 12 11 11 11 12 14 14 11 6 1 1 10 17 19 19 22 2 6 9 5 16 28 33 29 35 42 18 19 12 16 20 9 17 21 8
53 54 55 54 46 31 21 16 13 12 12 11 9 10 10 9 9 11 13 11 7 2 2 5 15 22 26 27 6 9 15 10 12 11 30 28 26 29 40 23 12 16 8 13 9 27 10
53 53 53 54 52 42 28 18 12 9 9 9 9 8 7 6 6 9 12 12 8 5 5 8 13 18 19 4 17 17 18 18 7 10 14 21 18 24 23 30 6 8 8 9 16 19 13
51 52 52 51 51 49 38 25 13 7 5 6 7 6 4 4 5 8 11 12 10 10 9 13 15 13 22 5 9 5 9 20 10 9 12 17 10 25 34 5 12 10 13 4 9 26 14
48 50 51 51 49 47 44 34 20 9 2 4 6 5 4 5 5 6 10 13 13 12 9 20 21 18 23 12 4 10 4 6 16 16 18 23 13 6 12 11 5 11 5 12 15 12 16
43 46 48 50 50 47 43 40 30 17 6 2 4 6 7 8 4 5 6 2 6 9 20 22 23 12 8 3 6 10 6 13 16 16 11 35 5 6 8 9 12 17 15 18 5 16 11
39 41 43 45 47 48 45 40 37 26 14 2 5 8 11 8 5 11 3 7 20 16 19 35 32 27 7 4 15 9 13 19 15 12 23 13 9 12 16 16 9 14 14 17 18 15 10
34 37 40 42 44 46 47 44 37 32 20 7 4 12 13 11 11 5 4 12 15 23 10 35 42 26 15 14 23 14 13 19 27 12 12 4 8 17 14 13 17 14 19 19 17 18 14
30 33 36 38 40 43 45 46 41 34 23 11 2 13 15 11 3 13 22 13 16 18 4 11 19 20 27 17 5 9 10 19 23 8 15 5 15 10 14 19 18 11 17 17 20 17 8
29 31 33 35 37 40 42 44 44 35 26 13 1 13 12 9 9 11 10 13 25 3 4 18 18 11 18 15 18 7 5 16 12 18 9 11 11 14 14 10 6 6 12 13 18 13 9
28 30 32 34 36 37 38 40 41 39 28 16 3 10 15 6 10 11 16 16 12 5 10 16 18 14 11 27 17 15 5 3 13 10 15 6 10 7 5 14 14 4 10 16 11 4 4
28 29 31 33 35 36 37 37 38 38 31 20 8 13 18 13 7 32 16 15 5 6 17 14 19 16 17 16 13 14 11 9 6 2 12 18 6 15 12 9 17 20 14 9 11 6 10
29 30 31 33 34 36 36 35 34 36 34 21 12 10 20 23 4 24 10 7 7 16 15 0 7 18 18 18 14 16 9 9 19 14 11 9 10 8 5 9 3 12 4 9 4 5 11
29 31 33 34 35 37 37 37 34 32 35 25 11 5 12 11 2 13 11 3 9 8 10 17 6 8 13 6 10 7 11 9 9 10 6 8 3 5 13 10 6 12 9 6 3 7 4
26 30 32 34 36 38 39 39 37 33 31 29 15 16 19 13 16 3 1 10 10 36 11 14 9 0 12 5 8 5 6 11 9 13 14 7 8 7 9 6 10 3 2 10 6 1 5
27 28 30 33 35 37 39 41 40 36 31 28 21 12 9 29 7 5 6 11 22 13 14 9 13 12 15 10 0 5 15 14 17 12 9 9 6 13 15 5 12 2 4 2 6 8 7
26 29 30 31 33 34 35 39 42 40 33 24 13 6 20 24 6 10 9 11 15 17 13 5 6 8 12 15 12 14 11 9 10 14 7 2 5 5 11 16 8 5 3 7 9 10 2
28 27 29 31 32 32 32 32 35 40 41 41 32 16 19 19 5 9 18 24 6 6 5 7 3 10 15 13 10 8 15 11 3 9 5 5 5 5 20 9 5 5 5 9 8 7 9
31 32 30 30 30 32 32 31 27 29 34 37 14 7 11 27 28 11 14 17 7 11 7 10 7 14 10 3 10 2 9 10 12 14 14 8 2 6 10 15 10 11 13 13 13 7 11
27 29 29 29 30 29 31 32 28 22 25 26 6 8 17 7 12 20 15 11 16 5 16 18 4 10 12 9 9 9 9 12 17 18 9 9 4 8 16 21 25 18 21 17 14 14 10
28 28 28 30 30 30 28 30 31 25 14 13 13 14 20 29 29 19 12 11 17 22 14 13 13 15 8 9 7 6 8 6 7 5 10 9 5 7 12 21 26 29 26 17 12 14 10
32 32 31 28 28 29 29 28 29 25 15 5 16 10 11 17 19 11 8 14 20 27 31 2 9 7 2 5 25 26 19 6 3 11 12 9 7 4 8 15 23 16 11 5 6 11 6
31 32 31 27 24 27 26 25 23 21 17 15 13 16 10 9 16 15 37 48 11 6 7 19 2 4 14 12 12 8 3 11 17 15 13 5 2 3 8 12 6 13 13 13 11 12 13
25 27 29 29 28 25 24 23 21 19 16 12 2 17 9 8 21 34 39 37 35 7 11 10 20 19 21 9 4 1 6 5 16 17 16 19 8 3 4 6 18 22 7 6 8 6 10
22 22 23 24 26 27 26 25 23 21 21 17 10 2 9 14 13 29 35 38 13 7 12 11 19 19 13 3 4 6 7 8 8 8 19 13 13 9 4 2 7 6 12 25 13 3 16
24 23 21 22 23 25 26 27 27 25 23 22 13 6 7 16 43 27 17 17 20 23 6 15 20 11 16 5 3 7 13 14 11 14 12 7 6 14 10 10 13 5 22 11 5 12 7
23 24 24 23 22 23 23 24 26 27 25 23 17 7 12 19 54 36 37 30 32 23 6 18 6 2 4 4 6 8 7 10 6 10 15 16 13 9 8 10 15 29 10 9 13 6 6
23 23 24 24 24 23 22 22 22 22 21 20 19 16 18 26 41 36 38 39 32 22 28 10 14 18 14 5 6 5 6 5 7 5 5 2 12 10 13 11 22 32 17 17 11 8 2
Wind_Direction_850mb
48 47 45 45 51 59 67 73 83 100 124 139 149 156 162 165 170 175 180 185 193 181 295 258 264 260 294 312 285 41 71 134 208 284 301 291 281 284 275 304 63 348 105 59 87 75 56
47 45 45 43 48 53 62 66 76 94 116 133 144 152 158 164 173 182 191 200 206 176 45 235 256 276 301 289 94 24 74 264 293 305 300 307 319 329 336 339 72 3 3 118 118 118 116
46 44 44 43 45 49 53 63 74 96 114 124 130 139 150 162 179 195 205 212 218 222 116 240 262 280 286 263 282 273 291 281 305 287 301 317 343 330 327 336 349 352 338 302 177 156 149
46 44 43 42 42 44 45 52 66 91 120 128 131 136 146 162 184 204 216 221 228 226 210 277 271 298 277 299 235 248 299 274 313 312 297 318 313 303 300 308 312 262 304 255 242 141 128
46 44 42 41 40 40 40 42 49 76 126 153 154 152 155 167 185 208 219 226 234 235 227 275 282 278 277 288 167 312 319 310 350 302 298 303 293 271 277 253 330 301 250 250 106 171 146
43 43 42 40 39 37 37 36 35 37 99 177 188 186 173 160 174 194 211 221 227 243 253 279 263 290 254 286 118 253 223 332 310 310 283 262 257 243 323 47 284 327 319 350 124 244 150
41 41 39 38 37 35 33 32 29 27 20 196 180 166 150 142 150 179 165 170 300 266 243 223 280 253 136 59 300 257 300 285 244 289 276 280 238 295 33 47 14 346 348 340 318 210 146
36 36 36 35 34 33 32 30 26 22 18 27 165 151 140 133 146 150 195 277 319 316 306 263 272 277 59 200 263 201 262 247 232 234 259 310 58 0 359 337 36 19 19 359 334 28 36
31 30 31 30 30 30 29 28 26 21 17 13 155 154 147 141 151 114 307 347 341 322 282 291 224 241 202 245 273 98 336 339 302 282 274 14 51 22 11 15 36 32 32 2 340 333 357
26 25 24 25 24 25 25 24 23 22 15 10 155 164 166 174 229 309 283 351 347 337 346 258 199 241 183 225 251 79 355 320 320 7 16 35 86 51 332 56 39 5 15 358 332 356 308
17 17 17 17 18 19 19 20 20 18 17 14 161 181 183 196 326 358 22 325 312 321 313 141 176 186 171 217 123 82 16 322 358 354 55 270 51 49 11 44 44 250 343 288 280 283 329
8 10 10 9 10 12 13 14 15 16 12 8 258 193 191 240 297 357 344 322 318 28 248 196 141 179 212 224 157 132 215 2 308 325 304 236 103 90 64 353 311 294 310 322 282 171 332
358 0 3 2 3 4 6 7 8 9 8 360 326 215 201 234 285 6 311 302 13 222 317 146 161 182 217 198 171 151 198 220 217 187 342 328 232 86 85 12 359 21 44 347 351 21 208
346 350 353 355 356 356 358 360 2 0 3 355 339 243 224 224 6 338 294 1 248 270 288 261 146 171 192 209 185 167 150 280 18 67 28 16 347 25 110 81 349 288 129 140 276 355 285
337 340 343 346 348 350 351 351 354 356 351 356 341 301 237 174 45 302 310 262 235 278 0 343 81 320 203 188 123 135 179 266 50 66 106 10 40 128 81 48 93 309 50 189 71 293 4
327 332 335 338 342 344 345 345 346 350 348 346 329 288 263 165 216 245 40 252 285 287 352 353 326 233 279 335 94 133 245 28 102 80 79 331 336 344 149 206 142 206 273 33 353 274 298
318 322 327 331 336 339 341 343 341 343 345 338 333 316 131 180 241 211 218 250 295 78 58 352 3 360 345 26 253 34 57 49 27 99 78 28 76 298 344 239 195 165 289 219 143 140 166
315 319 322 325 329 333 338 341 342 342 343 332 343 278 197 198 199 226 230 251 319 105 106 289 38 348 2 39 22 13 75 83 29 34 37 71 115 305 270 298 77 87 315 116 116 291 3
308 314 317 320 324 327 331 336 342 344 347 351 335 282 208 190 223 261 294 309 131 336 41 10 11 65 55 10 22 354 98 120 94 70 70 335 317 353 330 29 42 227 250 213 185 123 202
293 300 307 312 317 322 327 329 334 339 337 338 326 306 271 207 234 266 292 305 218 141 5 59 12 62 8 262 285 214 104 134 117 109 115 77 347 181 208 262 304 285 253 232 189 132 221
283 288 293 302 310 317 321 325 325 327 329 329 279 308 3 329 346 337 341 313 315 136 190 167 261 226 219 220 281 218 189 134 132 141 122 114 219 279 286 291 297 298 301 288 275 241 177
281 287 294 292 299 307 314 322 325 326 331 29 345 359 332 306 319 324 327 322 309 301 163 210 159 263 309 188 217 332 64 71 130 211 168 174 243 314 298 292 287 288 280 271 310 297 45
277 283 290 292 290 296 304 311 320 326 335 321 0 337 351 292 310 321 258 265 270 272 293 225 131 47 238 325 99 79 82 61 19 154 204 164 172 355 270 310 317 323 289 306 95 65 89
276 279 281 286 284 288 297 304 309 317 333 349 15 3 321 299 322 309 320 319 309 82 12 355 75 88 110 87 71 67 84 258 227 235 185 174 62 195 264 316 267 244 61 78 92 76 35
279 281 282 281 278 283 290 294 298 294 297 297 53 1 317 297 315 308 344 333 315 338 330 287 40 107 135 103 25 9 294 234 223 212 193 171 128 290 180 230 262 300 117 146 131 294 78
279 283 287 284 279 278 281 284 284 287 279 272 245 220 282 304 244 345 318 317 318 343 286 154 144 146 124 86 151 216 246 229 153 186 182 149 147 139 346 297 251 222 139 127 131 347 65
273 280 284 286 286 281 278 281 280 276 281 270 237 218 275 272 272 321 345 321 323 339 296 319 156 142 156 131 218 238 241 244 249 176 183 143 183 191 216 227 265 74 109 124 125 234 22
271 274 278 283 287 288 284 282 281 277 265 266 239 166 257 274 279 269 307 326 338 355 353 344 31 26 88 146 197 229 249 250 282 242 165 170 171 195 206 222 279 139 135 163 185 181 316
271 275 277 279 281 285 288 280 278 282 281 266 248 218 250 255 262 270 262 254 259 268 306 307 280 314 219 160 236 253 261 297 175 238 65 309 177 194 157 210 164 183 176 167 178 235 248